Location: Ambatotampy
(18.8181°S, 47.6186°E)
Time: 00:03:59
(UTC+00:00)

Cosmos 2297 Rocket - Pass Details

Date: 21 January 2021
Orbit: 841 x 842 km, 71.0° (Epoch: 24 February)

Event Time Altitude Azimuth Distance (km) Brightness Sun altitude
Exits shadow 00:18:27 23° 219° (SW) 1,729 3.7 -28.0°
Drops below altitude 10° 00:21:24 10° 192° (SSW) 2,473 4.9 -27.4°
Sets 00:24:14 0° 180° (S) 3,414 5.8 -26.9°
